"Pseudo-MPEC" for P22bw6l

Created 2025 Jul 7 22:35:11 UT using Find_Orb

Click here for an explanation of pseudo-MPECs

 
 Astrometry: 
     P22bw6l  C2025 07 03.38222200 01 04.842+05 39 29.93   ~7425 20.55gUNEOCPI41
     P22bw6l  C2025 07 03.46799800 01 22.065+05 39 34.92   ~7425 21.02rUNEOCPI41
     P22bw6l* C2025 07 03.53212200 01 35.287+05 39 39.59   ~73FZ 21.33wXNEOCPF52
     P22bw6l  C2025 07 03.54508400 01 37.879+05 39 40.70   ~73FZ 21.14wXNEOCPF52
     P22bw6l  C2025 07 03.55807800 01 40.498+05 39 41.21   ~73FZ 21.23wXNEOCPF52
     P22bw6l KC2025 07 03.99110800 03 08.91 +05 39 57.6    ~740o 21.0 GVNEOCPL01
     P22bw6l KC2025 07 03.99616100 03 09.95 +05 39 57.7    ~740o 20.6 GVNEOCPL01
     P22bw6l pC2025 07 04.00407800 03 11.52 +05 39 58.5    ~740o 20.6 GVNEOCPL01
     P22bw6l KC2025 07 04.01231800 03 13.25 +05 39 57.7    ~740o 21.3 GVNEOCPL01
     P22bw6l KC2025 07 04.35051700 04 22.40 +05 40 11.6    ~7495 21.3 GVNEOCPH21
     P22bw6l |C2025 07 04.35185000 04 22.580+05 40 23.50   ~749Z 21.2 GVNEOCP807
     P22bw6l KC2025 07 04.35331400 04 22.99 +05 40 11.9    ~7495 21.4 GVNEOCPH21
     P22bw6l KC2025 07 04.35573900 04 23.50 +05 40 12.0    ~7495 21.5 GVNEOCPH21
     P22bw6l |C2025 07 04.36081000 04 24.390+05 40 23.80   ~749Z 21.0 GVNEOCP807
     P22bw6l |C2025 07 04.36978000 04 26.200+05 40 24.20   ~749Z 20.9 GVNEOCP807
     P22bw6l KC2025 07 05.35710000 07 50.00 +05 40 34.5    ~759K 21.5 GVNEOCPH21
     P22bw6l KC2025 07 05.35989800 07 50.58 +05 40 34.6    ~759K 21.3 GVNEOCPH21
     P22bw6l KC2025 07 05.36735900 07 52.11 +05 40 34.4    ~759K 21.0 GVNEOCPH21
     P22bw6l 2C2025 07 05.57125100 08 34.428+05 40 39.58   ~76No 20.9 GWNEOCPT12
     P22bw6l 2C2025 07 05.57278000 08 34.754+05 40 39.56   ~76No 20.9 GWNEOCPT12
     P22bw6l KC2025 07 06.36412100 11 19.82 +05 40 34.4    ~769K 21.6 GVNEOCPH21
     P22bw6l KC2025 07 06.36977700 11 21.01 +05 40 34.3    ~769K 21.4 GVNEOCPH21

Station data:
(807) Cerro Tololo Observatory, La Serena  (S30.169133 W70.805900)  Chile.
   Observer R. Holmes. 0.61-m f/6.5 astrograph + CCD.
(F52) Pan-STARRS 2, Haleakala  (N20.707382 W156.255910)  US/Hawaii.
   Observers J. Bulger, T. Dukes, T. Lowe, A. Schultz, M. Willman. Measurers
   K. Chambers, S. Chastel, T. de Boer, L. Denneau, J. Fairlamb, H.
   Flewelling, M. Huber, C.-C. Lin, E. Magnier, Y. Ramanjooloo, R. Wainscoat,
   R. Weryk. 1.8-m Ritchey-Chrétien + CCD.
(H21) Astronomical Research Observatory, Westfield  (N39.483054 W87.968270)
   US/Illinois.  Observer R. Holmes. Measurers S. Foglia, L. Buzzi, T.
   Linder, R. Holmes. 0.40-m f/5.32 astrograph + CCD.
(I41) Palomar Mountain--ZTF  (N33.357336 W116.859780)  US/California.
   Observers B. T. Bolin, Z. T. F. Collaboration. Measurers B. T. Bolin,
   Z.-Y. Lin, F. J. Masci. 1.2-m f/2.4 Schmidt.
(L01) Višnjan Observatory, Tičan  (N45.290897 E13.749300)  Croatia.
   Observers K. Korlević, D. Pujagic, V. Dobos. Measurers D. Pujagic, K.
   Korlević. 1.0-m f/2.9 reflector + CCD.
(T12) Mauna Kea-UH/Tholen NEO Follow-Up (2.24-m)  (N19.822991 W155.469434)
   US/Hawaii.  Observer Y. Ramanjooloo. 2.24-m f/10.1 University of Hawaii
   reflector.

Orbital elements:  P22bw6l
   Perihelion 2025 Sep 11.93426 +/- 1.89 TT = 22:25:20 (JD 2460930.43426)
Epoch 2025 Jul  6.0 TT = JDT 2460862.5   Earth MOID: 0.2914   Ma: 0.0391
M 342.23633375 +/- 2.4              (J2000 ecliptic)             AutoNEOCP
n   0.26148318 +/- 0.0296           Peri.  227.37199 +/- 1.6
a   2.42199666 +/- 0.183            Node   146.42067 +/- 0.47
e   0.4961287 +/- 0.0328            Incl.   19.91811 +/- 0.23
P   3.76930                H 19.17  G  0.15   U 10.4
q 1.22037441 +/- 0.0127    Q 3.62361891 +/- 0.353
From 22 observations 2025 July 3-6; mean residual 0".24
Residuals in arcseconds: 
250703 I41  .14-  .13+    250704 L01  .42+  .30-    250705 H21  .05-  .24+    
250703 I41  .01+  .24+    250704 H21  .33-  .02+    250705 H21  .01+  .07-    
250703 F52  .01-  .31-    250704 807  .03-  .08+    250705 T12  .10-  .01+    
250703 F52  .11-  .09+    250704 H21  .02+  .22+    250705 T12  .10+  .02-    
250703 F52  .13+  .11-    250704 H21  .29+  .23+    250706 H21  .14-  .17-    
250703 L01  .04-  .56+    250704 807  .01+  .06+    250706 H21  .18+  .22-    
250703 L01  .15+  .43+    250704 807  .03+  .15+    
250704 L01  .42-  .87+    250705 H21  .16-  .18+    

Ephemerides (geocentric):
Date (UTC) HH   RA             Dec           delta  r     elong  mag " sig PA
---- --------  ------------   ------------  ------ ------ -----  --- --------
2025 07 07 23  00 16 56.135   +05 39 53.40  .82128 1.4091  99.6 21.2 .490  15
2025 07 08 00  00 17 05.007   +05 39 51.37  .82089 1.4089  99.6 21.2 .503  14
2025 07 08 01  00 17 13.882   +05 39 49.29  .82050 1.4086  99.6 21.2 .517  14
2025 07 08 02  00 17 22.761   +05 39 47.18  .82011 1.4084  99.6 21.2 .531  13
2025 07 08 03  00 17 31.644   +05 39 45.02  .81972 1.4082  99.6 21.2 .545  13
2025 07 08 04  00 17 40.530   +05 39 42.82  .81933 1.4080  99.6 21.2 .559  12
2025 07 08 05  00 17 49.421   +05 39 40.58  .81894 1.4078  99.6 21.2 .574  12
2025 07 08 06  00 17 58.315   +05 39 38.30  .81855 1.4076  99.6 21.2 .589  11
2025 07 08 07  00 18 07.212   +05 39 35.98  .81816 1.4074  99.6 21.2 .604  11
2025 07 08 08  00 18 16.114   +05 39 33.62  .81777 1.4072  99.6 21.2 .619  10
2025 07 08 09  00 18 25.019   +05 39 31.21  .81739 1.4070  99.6 21.2 .634  10
2025 07 08 10  00 18 33.928   +05 39 28.76  .81700 1.4067  99.6 21.2 .650   9
2025 07 08 11  00 18 42.841   +05 39 26.27  .81661 1.4065  99.6 21.2 .665   9
2025 07 08 12  00 18 51.758   +05 39 23.74  .81622 1.4063  99.6 21.2 .681   9
2025 07 08 13  00 19 00.678   +05 39 21.17  .81583 1.4061  99.7 21.2 .697   8
2025 07 08 14  00 19 09.603   +05 39 18.55  .81545 1.4059  99.7 21.2 .714   8
2025 07 08 15  00 19 18.531   +05 39 15.90  .81506 1.4057  99.7 21.2 .730   7
2025 07 08 16  00 19 27.462   +05 39 13.20  .81467 1.4055  99.7 21.2 .747   7
2025 07 08 17  00 19 36.398   +05 39 10.45  .81429 1.4053  99.7 21.2 .764   7
2025 07 08 18  00 19 45.337   +05 39 07.67  .81390 1.4051  99.7 21.2 .781   6
2025 07 08 19  00 19 54.280   +05 39 04.84  .81351 1.4049  99.7 21.2 .798   6
2025 07 08 20  00 20 03.227   +05 39 01.98  .81313 1.4046  99.7 21.2 .816   6
2025 07 08 21  00 20 12.178   +05 38 59.07  .81274 1.4044  99.7 21.2 .834   5
2025 07 08 22  00 20 21.132   +05 38 56.11  .81236 1.4042  99.7 21.2 .852   5
2025 07 08 23  00 20 30.090   +05 38 53.12  .81197 1.4040  99.7 21.2 .870   4
2025 07 09 00  00 20 39.052   +05 38 50.08  .81159 1.4038  99.7 21.2 .888   4
2025 07 09 01  00 20 48.018   +05 38 47.00  .81120 1.4036  99.7 21.2 .907   4
2025 07 09 02  00 20 56.987   +05 38 43.88  .81082 1.4034  99.7 21.2 .926   3
2025 07 09 03  00 21 05.961   +05 38 40.71  .81043 1.4032  99.7 21.2 .945   3
2025 07 09 04  00 21 14.938   +05 38 37.50  .81005 1.4030  99.7 21.2 .964   3
2025 07 09 05  00 21 23.919   +05 38 34.25  .80967 1.4028  99.7 21.2 .983   2
2025 07 09 06  00 21 32.904   +05 38 30.96  .80928 1.4025  99.8 21.2 1.00   2
2025 07 09 07  00 21 41.892   +05 38 27.63  .80890 1.4023  99.8 21.2 1.02   2
2025 07 09 08  00 21 50.884   +05 38 24.25  .80852 1.4021  99.8 21.2 1.04   1
2025 07 09 09  00 21 59.880   +05 38 20.83  .80813 1.4019  99.8 21.2 1.06   1
2025 07 09 10  00 22 08.880   +05 38 17.36  .80775 1.4017  99.8 21.2 1.08   1
2025 07 09 11  00 22 17.884   +05 38 13.85  .80737 1.4015  99.8 21.2 1.10   1
2025 07 09 12  00 22 26.891   +05 38 10.30  .80699 1.4013  99.8 21.2 1.13   0
2025 07 09 13  00 22 35.903   +05 38 06.71  .80660 1.4011  99.8 21.2 1.15   0
2025 07 09 14  00 22 44.918   +05 38 03.07  .80622 1.4009  99.8 21.2 1.17   0
2025 07 09 15  00 22 53.936   +05 37 59.39  .80584 1.4007  99.8 21.2 1.19 179
2025 07 09 16  00 23 02.959   +05 37 55.67  .80546 1.4005  99.8 21.2 1.21 179
2025 07 09 17  00 23 11.985   +05 37 51.91  .80508 1.4003  99.8 21.2 1.23 179
2025 07 09 18  00 23 21.016   +05 37 48.10  .80470 1.4000  99.8 21.2 1.26 178
2025 07 09 19  00 23 30.050   +05 37 44.24  .80432 1.3998  99.8 21.2 1.28 178
2025 07 09 20  00 23 39.088   +05 37 40.35  .80394 1.3996  99.8 21.2 1.30 178
2025 07 09 21  00 23 48.129   +05 37 36.41  .80356 1.3994  99.8 21.2 1.32 178
2025 07 09 22  00 23 57.175   +05 37 32.43  .80318 1.3992  99.8 21.2 1.35 177